Location: Perryvale
(54.4667°N, 113.3833°W)
Time: 22:55:08
(UTC+00:00)

SR - Pass Details

Date: 21 May 2024
Orbit: 580 x 858 km, 66.7° (Epoch: 13 June)

Event Time Altitude Azimuth Distance (km) Brightness Sun altitude
Rises 04:53:12 0° 275° (W) 3,112 ? -8.0°
Reaches altitude 10° 04:56:07 10° 291° (WNW) 2,140 ? -8.3°
Maximum altitude 04:59:51 22° 342° (NNW) 1,442 ? -8.6°
Drops below altitude 10° 05:03:24 10° 33° (NNE) 2,017 ? -8.9°
Sets 05:06:04 0° 49° (NE) 2,886 ? -9.1°
